Orbital Elements at Epoch 2459200.5 (2020-Dec-17.0) TDB
Reference: JPL 30 (heliocentric ecliptic J2000)
Element | Value | Uncertainty (1-sigma) | Units |
e | .112876742508485 | 4.0961e-08 | |
a | 2.575130293114013 | 9.653e-09 | au |
q | 2.284457974092383 | 1.068e-07 | au |
i | 13.87125901547694 | 4.3629e-06 | deg |
node | .05910722089301547 | 1.7359e-05 | deg |
peri | 131.2917729899741 | 2.6834e-05 | deg |
M | 31.95917345605269 | 2.0537e-05 | deg |
tp | 2459066.504480545757 (2020-Aug-05.00448055) | 8.5935e-05 | TDB |
period | 1509.375299391286 4.13 | 8.4869e-06 2.324e-08 | d yr |
n | .2385092694608053 | 1.3411e-09 | deg/d |
Q | 2.865802612135643 | 1.0743e-08 | au |
|
| | Orbit Determination Parameters
Additional Information
|